QPF
0.02 0.01 0.01 0.01 0.01 0.01 0.01 0.01 0.01 0.01 0.01 0.01 0.01 0.01 0.01 0.02 0.02 0.03 0.03 0.03 0.03 0.02 0.02 0.02 0.01 0.01 0.02 0.01 0.01 0.01 0.02 0.03 0.03 0.02 0.02 0.03 0.05 0.05 0.04 0.05 0.03 0.03 0.04
0.02 0.02 0.01 0.01 0.01 0.01 0.01 0.01 0.01 0.02 0.01 0.01 0.01 0.01 0.01 0.01 0.02 0.03 0.03 0.03 0.02 0.03 0.04 0.03 0.02 0.02 0.02 0.01 0.01 0.01 0.01 0.01 0.03 0.04 0.02 0.02 0.03 0.04 0.04 0.03 0.02 0.02 0.02
0.03 0.03 0.01 0.01 0.01 0.01 0.01 0.01 0.01 0.02 0.02 0.02 0.01 0.01 0.01 0.01 0.01 0.02 0.03 0.03 0.03 0.03 0.04 0.04 0.03 0.03 0.03 0.02 0.01 0.01 0.01 0.01 0.02 0.03 0.03 0.02 0.02 0.02 0.02 0.02 0.01 0.01 0.01
0.03 0.03 0.03 0.02 0.01 0.01 0.01 0.02 0.02 0.02 0.03 0.03 0.02 0.01 0.01 0.01 0.01 0.01 0.01 0.01 0.01 0.02 0.03 0.04 0.04 0.03 0.03 0.03 0.02 0.02 0.01 0.01 0.01 0.02 0.03 0.03 0.03 0.03 0.02 0.02 0.01 0.02 0.01
0.02 0.03 0.03 0.03 0.02 0.02 0.02 0.03 0.02 0.02 0.02 0.03 0.02 0.01 0.01 0.01 0.01 0.01 0.01 0.02 0.02 0.02 0.02 0.02 0.03 0.03 0.03 0.03 0.02 0.02 0.02 0.01 0.01 0.01 0.02 0.03 0.04 0.03 0.02 0.01 0.01 0.01 0.01
0.02 0.03 0.03 0.03 0.03 0.03 0.03 0.03 0.03 0.03 0.03 0.03 0.02 0.02 0.02 0.02 0.02 0.03 0.03 0.03 0.03 0.03 0.01 0.01 0.01 0.02 0.04 0.04 0.03 0.02 0.02 0.02 0.02 0.01 0.02 0.03 0.03 0.03 0.03 0.02 0.02 0.02 0.01
0.02 0.03 0.03 0.03 0.03 0.03 0.03 0.03 0.03 0.03 0.04 0.04 0.04 0.04 0.03 0.03 0.03 0.02 0.02 0.02 0.04 0.04 0.03 0.01 0.01 0.01 0.01 0.02 0.02 0.02 0.02 0.02 0.01 0.01 0.01 0.02 0.03 0.03 0.03 0.02 0.02 0.01 0.01
0.02 0.02 0.02 0.03 0.03 0.03 0.04 0.04 0.03 0.02 0.03 0.03 0.04 0.04 0.03 0.03 0.03 0.02 0.02 0.02 0.03 0.03 0.03 0.02 0.01 0.01 0.01 0.01 0.01 0.01 0.01 0.01 0.01 0.01 0.01 0.01 0.02 0.03 0.03 0.03 0.02 0.01 0.01
0.01 0.01 0.01 0.02 0.02 0.02 0.02 0.02 0.03 0.03 0.02 0.02 0.03 0.03 0.04 0.03 0.03 0.02 0.02 0.02 0.03 0.02 0.02 0.02 0.02 0.01 0.01 0.02 0.01 0.01 0.01 0.01 0.01 0.01 0.01 0.01 0.01 0.02 0.04 0.05 0.03 0.02 0.01
0.01 0.01 0.01 0.01 0.01 0.02 0.02 0.01 0.02 0.02 0.02 0.02 0.02 0.02 0.02 0.03 0.03 0.03 0.02 0.03 0.03 0.03 0.02 0.02 0.02 0.02 0.02 0.03 0.02 0.02 0.01 0.01 0.01 0.01 0.01 0.01 0.01 0.01 0.02 0.04 0.04 0.02 0.01
0.01 0.01 0.02 0.02 0.02 0.02 0.03 0.02 0.02 0.02 0.01 0.01 0.01 0.01 0.01 0.01 0.02 0.02 0.02 0.02 0.02 0.03 0.03 0.02 0.02 0.03 0.04 0.04 0.03 0.02 0.02 0.02 0.01 0.01 0.01 0.01 0.01 0.01 0.01 0.02 0.03 0.03 0.02
0.01 0.01 0.01 0.02 0.02 0.02 0.03 0.03 0.03 0.02 0.01 0.01 0.01 0.01 0.01 0.02 0.02 0.02 0.02 0.02 0.02 0.02 0.02 0.02 0.02 0.03 0.04 0.04 0.03 0.02 0.02 0.02 0.02 0.01 0.02 0.02 0.02 0.01 0.01 0.02 0.02 0.03 0.03
0.01 0.01 0.01 0.01 0.02 0.02 0.02 0.03 0.03 0.03 0.02 0.01 0.01 0.02 0.02 0.02 0.02 0.03 0.03 0.03 0.02 0.02 0.02 0.02 0.02 0.02 0.03 0.04 0.03 0.02 0.02 0.02 0.02 0.02 0.01 0.01 0.01 0.01 0.01 0.02 0.03 0.03 0.04
0.02 0.02 0.02 0.01 0.01 0.02 0.02 0.02 0.02 0.02 0.02 0.01 0.01 0.01 0.01 0.01 0.01 0.02 0.02 0.03 0.03 0.03 0.02 0.02 0.02 0.02 0.03 0.03 0.03 0.03 0.03 0.03 0.02 0.02 0.01 0.01 0.01 0.01 0.01 0.02 0.03 0.04 0.04
0.02 0.03 0.03 0.02 0.01 0.01 0.01 0.02 0.02 0.02 0.02 0.01 0.01 0.01 0.01 0.01 0.01 0.02 0.02 0.02 0.03 0.03 0.04 0.03 0.02 0.02 0.02 0.02 0.03 0.03 0.03 0.03 0.03 0.02 0.02 0.02 0.01 0.01 0.01 0.01 0.02 0.03 0.02
0.01 0.02 0.03 0.02 0.02 0.01 0.01 0.02 0.02 0.02 0.02 0.01 0.01 0.01 0.01 0.01 0.01 0.01 0.01 0.01 0.02 0.03 0.03 0.03 0.03 0.02 0.02 0.02 0.02 0.02 0.03 0.03 0.02 0.02 0.03 0.02 0.02 0.02 0.02 0.02 0.02 0.02 0.02
0.01 0.01 0.01 0.02 0.02 0.02 0.01 0.01 0.01 0.01 0.01 0.01 0.00 0.00 0.01 0.01 0.01 0.01 0.01 0.01 0.02 0.02 0.02 0.02 0.03 0.03 0.02 0.02 0.03 0.03 0.03 0.02 0.02 0.02 0.03 0.03 0.02 0.02 0.02 0.02 0.02 0.02 0.02
0.01 0.01 0.01 0.01 0.02 0.02 0.01 0.01 0.01 0.01 0.01 0.00 0.00 0.00 0.00 0.01 0.01 0.01 0.01 0.01 0.01 0.01 0.01 0.02 0.03 0.03 0.03 0.03 0.03 0.03 0.03 0.03 0.03 0.03 0.03 0.02 0.03 0.03 0.03 0.03 0.02 0.02 0.02
0.01 0.01 0.01 0.01 0.01 0.01 0.01 0.01 0.01 0.01 0.00 0.00 0.00 0.00 0.01 0.01 0.01 0.01 0.01 0.00 0.00 0.01 0.01 0.02 0.02 0.03 0.03 0.03 0.03 0.03 0.03 0.03 0.03 0.02 0.02 0.02 0.02 0.03 0.03 0.03 0.03 0.03 0.03
0.01 0.01 0.01 0.01 0.01 0.01 0.01 0.01 0.01 0.00 0.00 0.00 0.00 0.00 0.01 0.01 0.01 0.01 0.01 0.00 0.00 0.00 0.01 0.01 0.01 0.02 0.03 0.03 0.02 0.02 0.02 0.03 0.03 0.03 0.03 0.03 0.03 0.03 0.03 0.03 0.03 0.04 0.04
0.01 0.01 0.01 0.01 0.01 0.01 0.01 0.00 0.00 0.00 0.00 0.00 0.00 0.00 0.01 0.01 0.01 0.00 0.00 0.01 0.01 0.00 0.00 0.01 0.01 0.01 0.02 0.03 0.03 0.02 0.02 0.02 0.03 0.02 0.02 0.02 0.02 0.03 0.03 0.03 0.04 0.04 0.04
0.01 0.01 0.01 0.01 0.01 0.01 0.01 0.00 0.00 0.00 0.00 0.00 0.00 0.00 0.01 0.01 0.01 0.01 0.00 0.00 0.00 0.01 0.01 0.01 0.01 0.01 0.02 0.02 0.03 0.04 0.02 0.02 0.02 0.03 0.02 0.02 0.02 0.02 0.02 0.03 0.04 0.05 0.05
0.01 0.00 0.00 0.00 0.01 0.01 0.01 0.00 0.00 0.00 0.01 0.01 0.00 0.00 0.01 0.01 0.01 0.01 0.01 0.01 0.01 0.01 0.01 0.01 0.01 0.01 0.02 0.02 0.03 0.05 0.04 0.02 0.02 0.02 0.02 0.02 0.02 0.02 0.02 0.03 0.04 0.05 0.04
0.01 0.01 0.00 0.00 0.00 0.01 0.01 0.01 0.00 0.00 0.01 0.00 0.00 0.01 0.01 0.01 0.01 0.01 0.01 0.01 0.01 0.01 0.01 0.01 0.01 0.01 0.01 0.02 0.03 0.03 0.04 0.04 0.03 0.03 0.03 0.03 0.03 0.03 0.03 0.04 0.04 0.04 0.04
0.01 0.00 0.00 0.00 0.00 0.00 0.01 0.01 0.01 0.00 0.00 0.00 0.00 0.00 0.00 0.01 0.01 0.01 0.01 0.01 0.01 0.01 0.01 0.01 0.01 0.01 0.01 0.01 0.02 0.02 0.03 0.04 0.04 0.05 0.04 0.04 0.04 0.03 0.03 0.03 0.03 0.04 0.04
0.00 0.00 0.00 0.00 0.00 0.00 0.01 0.01 0.01 0.01 0.01 0.01 0.00 0.01 0.01 0.01 0.01 0.01 0.01 0.01 0.01 0.01 0.01 0.01 0.01 0.01 0.01 0.01 0.01 0.02 0.03 0.04 0.05 0.06 0.07 0.07 0.06 0.05 0.04 0.03 0.03 0.04 0.04
MSLP
1011.74 1011.79 1011.86 1011.94 1012.02 1012.10 1012.20 1012.35 1012.56 1012.87 1013.28 1013.79 1014.37 1015.00 1015.63 1016.22 1016.74 1017.15 1017.44 1017.63 1017.72 1017.76 1017.78 1017.83 1017.94 1018.14 1018.45 1018.88 1019.41 1020.02 1020.69 1021.39 1022.07 1022.71 1023.29 1023.79 1024.20 1024.53 1024.80 1025.02 1025.21 1025.40 1025.60
1011.81 1011.82 1011.86 1011.90 1011.93 1011.97 1012.03 1012.13 1012.31 1012.58 1012.96 1013.45 1014.02 1014.64 1015.28 1015.89 1016.43 1016.88 1017.21 1017.43 1017.55 1017.62 1017.66 1017.72 1017.83 1018.03 1018.33 1018.75 1019.28 1019.89 1020.56 1021.27 1021.97 1022.64 1023.24 1023.78 1024.23 1024.61 1024.92 1025.19 1025.43 1025.66 1025.90
1011.96 1011.95 1011.95 1011.95 1011.95 1011.94 1011.95 1012.01 1012.14 1012.37 1012.70 1013.15 1013.69 1014.29 1014.92 1015.53 1016.07 1016.53 1016.89 1017.14 1017.30 1017.39 1017.46 1017.55 1017.69 1017.90 1018.22 1018.65 1019.18 1019.79 1020.46 1021.16 1021.86 1022.52 1023.13 1023.67 1024.14 1024.54 1024.87 1025.17 1025.44 1025.70 1025.97
1012.18 1012.14 1012.11 1012.08 1012.03 1011.98 1011.95 1011.96 1012.04 1012.22 1012.51 1012.91 1013.41 1013.97 1014.57 1015.15 1015.68 1016.14 1016.50 1016.77 1016.95 1017.08 1017.19 1017.32 1017.49 1017.74 1018.09 1018.54 1019.08 1019.69 1020.35 1021.04 1021.71 1022.35 1022.94 1023.46 1023.92 1024.31 1024.66 1024.96 1025.25 1025.53 1025.81
1012.43 1012.37 1012.32 1012.24 1012.16 1012.06 1011.98 1011.95 1011.98 1012.11 1012.35 1012.70 1013.15 1013.67 1014.22 1014.76 1015.27 1015.70 1016.06 1016.33 1016.53 1016.69 1016.84 1017.01 1017.23 1017.53 1017.91 1018.38 1018.93 1019.55 1020.19 1020.85 1021.48 1022.08 1022.63 1023.12 1023.55 1023.93 1024.27 1024.59 1024.88 1025.17 1025.45
1012.67 1012.60 1012.51 1012.40 1012.27 1012.14 1012.02 1011.94 1011.93 1012.01 1012.20 1012.50 1012.90 1013.36 1013.85 1014.34 1014.80 1015.20 1015.54 1015.81 1016.03 1016.22 1016.41 1016.63 1016.90 1017.24 1017.67 1018.16 1018.72 1019.32 1019.94 1020.55 1021.14 1021.69 1022.19 1022.64 1023.04 1023.41 1023.75 1024.06 1024.36 1024.66 1024.94
1012.87 1012.77 1012.66 1012.51 1012.35 1012.17 1012.01 1011.89 1011.84 1011.88 1012.02 1012.26 1012.60 1012.99 1013.43 1013.86 1014.27 1014.64 1014.95 1015.22 1015.45 1015.68 1015.91 1016.18 1016.51 1016.90 1017.35 1017.86 1018.42 1019.00 1019.58 1020.15 1020.68 1021.18 1021.63 1022.03 1022.41 1022.76 1023.10 1023.43 1023.74 1024.05 1024.33
1013.00 1012.89 1012.74 1012.56 1012.35 1012.14 1011.94 1011.78 1011.69 1011.69 1011.77 1011.96 1012.23 1012.55 1012.92 1013.29 1013.65 1013.98 1014.28 1014.55 1014.81 1015.07 1015.35 1015.68 1016.06 1016.49 1016.98 1017.50 1018.05 1018.60 1019.14 1019.65 1020.12 1020.56 1020.96 1021.34 1021.70 1022.05 1022.40 1022.74 1023.08 1023.40 1023.70
1013.07 1012.94 1012.76 1012.54 1012.30 1012.05 1011.81 1011.62 1011.48 1011.43 1011.46 1011.58 1011.77 1012.03 1012.32 1012.63 1012.95 1013.25 1013.54 1013.83 1014.12 1014.43 1014.77 1015.16 1015.59 1016.06 1016.57 1017.10 1017.63 1018.15 1018.64 1019.09 1019.51 1019.89 1020.26 1020.61 1020.96 1021.32 1021.69 1022.06 1022.43 1022.77 1023.08
1013.10 1012.94 1012.73 1012.48 1012.21 1011.92 1011.65 1011.41 1011.23 1011.11 1011.08 1011.13 1011.25 1011.43 1011.66 1011.91 1012.18 1012.47 1012.76 1013.08 1013.41 1013.78 1014.19 1014.63 1015.12 1015.63 1016.16 1016.69 1017.20 1017.68 1018.13 1018.53 1018.90 1019.25 1019.58 1019.92 1020.27 1020.64 1021.03 1021.43 1021.83 1022.20 1022.52
1013.09 1012.91 1012.67 1012.40 1012.09 1011.77 1011.46 1011.18 1010.94 1010.77 1010.67 1010.64 1010.68 1010.79 1010.95 1011.15 1011.39 1011.67 1011.98 1012.33 1012.71 1013.14 1013.61 1014.12 1014.66 1015.20 1015.75 1016.28 1016.77 1017.23 1017.63 1018.00 1018.33 1018.65 1018.97 1019.30 1019.66 1020.05 1020.46 1020.88 1021.29 1021.68 1022.02
1013.07 1012.87 1012.61 1012.31 1011.97 1011.62 1011.27 1010.94 1010.65 1010.42 1010.24 1010.14 1010.10 1010.14 1010.23 1010.40 1010.61 1010.89 1011.22 1011.60 1012.04 1012.53 1013.06 1013.62 1014.20 1014.77 1015.33 1015.85 1016.33 1016.77 1017.15 1017.50 1017.81 1018.12 1018.44 1018.78 1019.15 1019.55 1019.97 1020.40 1020.83 1021.22 1021.55
1013.04 1012.81 1012.53 1012.21 1011.85 1011.47 1011.08 1010.71 1010.37 1010.07 1009.82 1009.64 1009.53 1009.50 1009.54 1009.67 1009.86 1010.14 1010.49 1010.91 1011.39 1011.92 1012.50 1013.09 1013.70 1014.29 1014.85 1015.37 1015.84 1016.27 1016.65 1016.99 1017.31 1017.63 1017.97 1018.32 1018.71 1019.12 1019.55 1019.99 1020.40 1020.78 1021.10
1012.98 1012.74 1012.44 1012.09 1011.71 1011.30 1010.88 1010.47 1010.07 1009.72 1009.40 1009.16 1008.99 1008.89 1008.89 1008.98 1009.16 1009.43 1009.79 1010.23 1010.74 1011.30 1011.90 1012.51 1013.12 1013.71 1014.27 1014.78 1015.25 1015.67 1016.06 1016.42 1016.77 1017.13 1017.49 1017.88 1018.29 1018.72 1019.15 1019.57 1019.96 1020.32 1020.61
1012.88 1012.61 1012.30 1011.93 1011.53 1011.10 1010.65 1010.20 1009.76 1009.35 1008.99 1008.68 1008.46 1008.32 1008.27 1008.33 1008.49 1008.76 1009.11 1009.56 1010.07 1010.63 1011.22 1011.82 1012.41 1012.98 1013.52 1014.03 1014.49 1014.93 1015.34 1015.73 1016.13 1016.53 1016.95 1017.38 1017.82 1018.26 1018.69 1019.10 1019.47 1019.79 1020.05
1012.70 1012.42 1012.09 1011.71 1011.30 1010.85 1010.38 1009.90 1009.43 1008.98 1008.57 1008.21 1007.94 1007.76 1007.68 1007.70 1007.84 1008.09 1008.43 1008.85 1009.34 1009.88 1010.43 1011.00 1011.55 1012.09 1012.60 1013.08 1013.55 1013.99 1014.43 1014.88 1015.33 1015.79 1016.27 1016.75 1017.22 1017.68 1018.12 1018.51 1018.85 1019.14 1019.36
1012.43 1012.14 1011.80 1011.42 1011.00 1010.54 1010.06 1009.56 1009.06 1008.58 1008.13 1007.74 1007.43 1007.20 1007.09 1007.08 1007.19 1007.40 1007.71 1008.09 1008.54 1009.03 1009.54 1010.05 1010.55 1011.04 1011.52 1011.98 1012.43 1012.89 1013.36 1013.85 1014.35 1014.88 1015.41 1015.94 1016.46 1016.94 1017.38 1017.77 1018.09 1018.35 1018.55
1012.08 1011.78 1011.44 1011.06 1010.65 1010.19 1009.70 1009.20 1008.68 1008.17 1007.69 1007.27 1006.91 1006.65 1006.48 1006.43 1006.50 1006.67 1006.93 1007.27 1007.66 1008.09 1008.54 1009.00 1009.44 1009.88 1010.32 1010.76 1011.20 1011.67 1012.16 1012.68 1013.23 1013.81 1014.39 1014.96 1015.51 1016.01 1016.47 1016.85 1017.17 1017.42 1017.60
1011.65 1011.36 1011.03 1010.67 1010.26 1009.82 1009.34 1008.83 1008.30 1007.77 1007.26 1006.79 1006.38 1006.07 1005.85 1005.74 1005.75 1005.86 1006.07 1006.35 1006.69 1007.07 1007.46 1007.87 1008.27 1008.67 1009.08 1009.50 1009.94 1010.41 1010.92 1011.46 1012.04 1012.64 1013.25 1013.84 1014.41 1014.93 1015.38 1015.77 1016.09 1016.34 1016.53
1011.17 1010.90 1010.60 1010.26 1009.88 1009.46 1008.99 1008.48 1007.93 1007.38 1006.82 1006.30 1005.84 1005.45 1005.16 1004.98 1004.92 1004.96 1005.10 1005.33 1005.62 1005.96 1006.32 1006.70 1007.08 1007.47 1007.87 1008.28 1008.72 1009.20 1009.71 1010.26 1010.84 1011.44 1012.05 1012.64 1013.21 1013.72 1014.18 1014.57 1014.90 1015.16 1015.37
1010.67 1010.42 1010.16 1009.86 1009.52 1009.13 1008.67 1008.16 1007.59 1007.00 1006.39 1005.80 1005.25 1004.78 1004.39 1004.12 1003.97 1003.94 1004.02 1004.19 1004.45 1004.76 1005.12 1005.50 1005.89 1006.30 1006.72 1007.15 1007.61 1008.09 1008.60 1009.15 1009.71 1010.29 1010.87 1011.44 1011.97 1012.47 1012.91 1013.30 1013.64 1013.92 1014.15
1010.16 1009.96 1009.74 1009.49 1009.19 1008.82 1008.38 1007.85 1007.26 1006.61 1005.94 1005.25 1004.60 1004.02 1003.52 1003.14 1002.89 1002.78 1002.79 1002.92 1003.15 1003.47 1003.84 1004.25 1004.70 1005.16 1005.62 1006.11 1006.60 1007.10 1007.62 1008.15 1008.69 1009.23 1009.76 1010.28 1010.77 1011.23 1011.65 1012.03 1012.36 1012.66 1012.93
1009.66 1009.51 1009.34 1009.14 1008.87 1008.52 1008.08 1007.54 1006.91 1006.20 1005.43 1004.64 1003.88 1003.16 1002.54 1002.03 1001.67 1001.46 1001.40 1001.50 1001.72 1002.05 1002.46 1002.94 1003.46 1004.00 1004.56 1005.11 1005.66 1006.21 1006.74 1007.27 1007.78 1008.28 1008.76 1009.21 1009.65 1010.06 1010.44 1010.80 1011.14 1011.45 1011.74
1009.17 1009.06 1008.94 1008.77 1008.54 1008.20 1007.76 1007.19 1006.50 1005.72 1004.86 1003.96 1003.06 1002.21 1001.45 1000.82 1000.34 1000.03 999.90 999.95 1000.17 1000.52 1000.99 1001.54 1002.15 1002.80 1003.46 1004.11 1004.74 1005.34 1005.91 1006.44 1006.93 1007.40 1007.83 1008.23 1008.61 1008.97 1009.32 1009.65 1009.98 1010.30 1010.62
1008.69 1008.61 1008.52 1008.38 1008.15 1007.82 1007.36 1006.76 1006.02 1005.16 1004.21 1003.21 1002.19 1001.21 1000.32 999.56 998.97 998.56 998.36 998.36 998.55 998.92 999.43 1000.06 1000.76 1001.51 1002.27 1003.02 1003.74 1004.41 1005.03 1005.59 1006.09 1006.54 1006.94 1007.30 1007.64 1007.96 1008.27 1008.59 1008.91 1009.24 1009.57
1008.20 1008.14 1008.06 1007.92 1007.69 1007.35 1006.87 1006.24 1005.46 1004.54 1003.52 1002.43 1001.32 1000.24 999.23 998.36 997.66 997.16 996.87 996.82 996.98 997.34 997.87 998.54 999.31 1000.14 1000.99 1001.83 1002.63 1003.38 1004.05 1004.65 1005.17 1005.63 1006.02 1006.37 1006.68 1006.99 1007.28 1007.59 1007.91 1008.24 1008.58
Thickness
5658 5657 5656 5654 5653 5653 5651 5650 5650 5649 5648 5647 5646 5645 5645 5644 5643 5642 5641 5641 5641 5642 5642 5642 5642 5642 5642 5642 5642 5642 5643 5643 5639 5639 5639 5639 5638 5637 5636 5636 5636 5636 5635
5652 5651 5650 5649 5649 5648 5647 5646 5645 5645 5644 5642 5641 5640 5640 5639 5638 5637 5636 5636 5636 5637 5638 5638 5638 5637 5637 5637 5636 5637 5638 5638 5636 5633 5633 5632 5632 5632 5632 5632 5631 5631 5631
5646 5645 5645 5644 5644 5643 5642 5641 5640 5639 5639 5638 5637 5636 5635 5634 5633 5633 5632 5632 5633 5634 5634 5633 5634 5633 5632 5631 5631 5632 5632 5633 5632 5629 5627 5626 5626 5626 5626 5626 5626 5626 5626
5640 5639 5639 5638 5637 5637 5637 5635 5634 5634 5633 5633 5632 5631 5631 5630 5628 5628 5628 5629 5629 5629 5629 5628 5628 5627 5627 5627 5626 5626 5626 5626 5625 5624 5622 5621 5620 5619 5620 5620 5621 5621 5621
5634 5633 5632 5632 5632 5631 5630 5629 5628 5627 5627 5626 5626 5626 5625 5624 5623 5623 5623 5624 5624 5624 5623 5623 5622 5621 5620 5620 5620 5620 5619 5619 5619 5618 5617 5616 5615 5614 5614 5616 5616 5617 5617
5629 5627 5627 5627 5626 5624 5624 5622 5621 5621 5621 5620 5620 5619 5618 5618 5616 5615 5616 5618 5619 5618 5617 5617 5616 5615 5613 5612 5612 5612 5612 5613 5613 5613 5612 5612 5612 5611 5611 5611 5611 5611 5612
5622 5621 5621 5621 5620 5618 5617 5616 5614 5614 5614 5613 5612 5612 5611 5610 5609 5608 5608 5611 5611 5611 5611 5611 5611 5610 5609 5609 5607 5606 5605 5605 5606 5608 5608 5608 5608 5608 5607 5606 5607 5607 5608
5616 5615 5614 5613 5613 5612 5611 5610 5609 5609 5607 5606 5605 5604 5603 5603 5602 5601 5601 5603 5604 5604 5604 5604 5604 5605 5604 5603 5603 5602 5602 5602 5601 5601 5603 5604 5603 5603 5602 5603 5603 5602 5603
5609 5608 5607 5607 5606 5605 5605 5604 5603 5601 5601 5600 5598 5597 5597 5597 5595 5594 5593 5596 5597 5597 5597 5598 5598 5598 5596 5595 5596 5597 5597 5597 5595 5594 5594 5595 5595 5595 5595 5595 5596 5596 5597
5601 5600 5600 5600 5600 5599 5598 5597 5595 5595 5594 5593 5592 5591 5590 5590 5588 5587 5586 5589 5590 5590 5591 5591 5589 5589 5588 5588 5590 5591 5591 5591 5591 5590 5588 5589 5589 5589 5588 5590 5591 5591 5593
5592 5592 5591 5592 5592 5591 5590 5589 5588 5587 5586 5586 5585 5584 5584 5583 5582 5580 5579 5582 5582 5583 5584 5584 5583 5580 5580 5580 5582 5584 5584 5584 5585 5585 5585 5585 5585 5585 5584 5584 5585 5585 5586
5584 5584 5583 5583 5583 5582 5581 5580 5580 5579 5578 5578 5578 5577 5576 5576 5574 5572 5572 5571 5572 5575 5576 5575 5575 5572 5572 5572 5573 5574 5574 5574 5577 5578 5578 5579 5579 5579 5579 5579 5579 5579 5579
5575 5575 5574 5574 5573 5573 5572 5571 5571 5570 5570 5570 5570 5570 5569 5568 5566 5565 5564 5564 5564 5566 5567 5566 5565 5564 5563 5564 5564 5565 5566 5567 5569 5570 5572 5573 5573 5573 5573 5572 5572 5571 5571
5567 5567 5565 5565 5564 5564 5563 5563 5562 5562 5562 5562 5562 5561 5560 5560 5559 5558 5557 5557 5556 5557 5558 5557 5556 5556 5556 5556 5557 5557 5559 5560 5561 5563 5564 5565 5566 5565 5565 5565 5565 5564 5564
5559 5558 5557 5556 5555 5554 5554 5553 5553 5553 5552 5552 5552 5552 5551 5551 5550 5548 5548 5549 5548 5548 5548 5549 5549 5549 5549 5550 5550 5551 5551 5552 5553 5554 5556 5557 5557 5558 5558 5558 5558 5558 5559
5552 5550 5549 5548 5546 5545 5545 5545 5543 5542 5542 5541 5541 5541 5542 5541 5540 5539 5538 5538 5537 5537 5538 5540 5541 5541 5541 5541 5541 5542 5542 5543 5544 5545 5547 5549 5550 5550 5551 5550 5550 5551 5553
5544 5543 5541 5540 5539 5538 5537 5537 5537 5535 5533 5532 5531 5531 5530 5530 5529 5529 5528 5527 5527 5527 5529 5531 5532 5532 5532 5532 5533 5533 5534 5535 5535 5536 5538 5540 5541 5543 5543 5543 5543 5543 5544
5536 5535 5533 5532 5531 5531 5530 5529 5529 5529 5528 5527 5524 5522 5521 5520 5519 5519 5518 5518 5519 5518 5520 5521 5522 5522 5522 5523 5524 5524 5525 5525 5526 5527 5528 5531 5533 5534 5535 5535 5536 5536 5537
5529 5528 5526 5525 5524 5523 5522 5521 5520 5520 5519 5519 5518 5516 5513 5511 5510 5509 5508 5511 5512 5511 5511 5511 5511 5512 5513 5514 5515 5515 5516 5517 5517 5518 5519 5521 5523 5525 5526 5527 5528 5527 5528
5521 5519 5518 5518 5517 5516 5515 5514 5512 5511 5511 5510 5510 5508 5506 5505 5505 5504 5503 5503 5503 5503 5503 5503 5503 5503 5504 5505 5506 5507 5508 5509 5509 5510 5510 5511 5514 5515 5517 5518 5519 5520 5521
5513 5512 5510 5510 5510 5509 5507 5506 5505 5504 5502 5501 5501 5499 5496 5498 5499 5498 5496 5496 5495 5496 5496 5496 5496 5496 5497 5497 5498 5499 5499 5500 5501 5501 5502 5503 5504 5505 5507 5509 5510 5512 5513
5506 5505 5504 5503 5502 5501 5499 5498 5497 5496 5494 5493 5493 5492 5488 5490 5491 5490 5489 5488 5488 5488 5488 5488 5488 5488 5489 5489 5490 5490 5491 5492 5492 5493 5494 5495 5496 5497 5498 5499 5501 5503 5503
5498 5497 5496 5495 5494 5491 5491 5490 5489 5488 5487 5486 5485 5484 5483 5483 5483 5483 5482 5481 5481 5480 5480 5480 5481 5481 5481 5481 5481 5482 5483 5483 5483 5484 5485 5486 5487 5488 5489 5491 5492 5493 5494
5491 5490 5489 5488 5486 5484 5483 5482 5481 5479 5479 5478 5477 5477 5476 5476 5476 5475 5475 5474 5474 5474 5473 5473 5473 5474 5474 5474 5474 5474 5474 5475 5475 5475 5476 5477 5479 5480 5481 5482 5483 5484 5485
5485 5483 5482 5480 5478 5477 5475 5474 5473 5472 5471 5470 5470 5469 5469 5469 5469 5468 5468 5467 5467 5467 5466 5466 5466 5466 5467 5467 5467 5467 5467 5467 5467 5467 5467 5469 5470 5471 5472 5473 5474 5475 5476
5477 5475 5474 5472 5470 5468 5467 5466 5465 5464 5464 5463 5463 5463 5463 5463 5462 5462 5461 5460 5460 5460 5459 5459 5459 5459 5460 5460 5460 5460 5460 5460 5459 5459 5459 5460 5461 5463 5463 5465 5466 5466 5467